Location: Newark
(48.6461°N, 4.3644°W)
Time: 01:11:09
(UTC+00:00)

A-11 Canister half - Pass Details

Date: 30 January 2020
Orbit: 1517 x 1683 km, 47.2° (Epoch: 26 February)

Event Time Altitude Azimuth Distance (km) Brightness Sun altitude
Exits shadow 03:15:14 31° 122° (ESE) 2,408 10.1 -44.7°
Drops below altitude 10° 03:19:27 10° 117° (ESE) 3,686 11.3 -44.1°
Sets 03:22:31 0° 115° (ESE) 4,678 11.9 -43.6°
